Location: Poughquag
(41.6090°N, 73.6820°W)
Time: 07:33:33
(UTC-05:00)

Altair - Pass Details

Date: 05 December 2023
Orbit: 1501 x 1682 km, 47.2° (Epoch: 02 March)

Event Time Altitude Azimuth Distance (km) Brightness Sun altitude
Rises 12:09:08 0° 288° (WNW) 4,744 10.0 25.8°
Reaches altitude 10° 12:12:17 10° 291° (WNW) 3,737 9.5 25.7°
Maximum altitude 12:21:40 70° 15° (NNE) 1,596 7.8 25.4°
Drops below altitude 10° 12:30:50 10° 99° (E) 3,650 9.5 25.1°
Sets 12:33:52 0° 102° (ESE) 4,629 10.0 25.0°
